{"data":{"norad_id":52487,"intl_designator":"2022-049AN","name":"STARLINK-3902","alt_names":[],"object_type":"PAYLOAD","status":"ACTIVE","operator":null,"country":"US","launch_date":"2022-05-06","launch_site_code":"AFETR","launch_vehicle":null,"mission":null,"orbit_class":"UNKNOWN","rcs_meters":null,"size_class":null,"mass_kg":null,"dimensions":null,"purposes":["comms"],"wikipedia_slug":null,"has_3d_model":false,"image_url":null,"decayed_at":null,"tle_current":{"epoch":"2026-09-19T16:09:24.905088Z","epoch_age_seconds":134750,"freshness":"FRESH","line1":"1 52487U 22049AN  26262.67320492  .00000681  00000+0  31290-4 0  9997","line2":"2 52487  53.1596 247.2335 0001268  89.4058 270.7090 15.34387965243065","mean_motion":15.34387965,"eccentricity":0.0001268,"inclination_deg":53.1596,"raan_deg":247.2335,"arg_perigee_deg":89.4058,"mean_anomaly_deg":270.709,"bstar":3.129e-5,"rev_number":24306,"period_min":93.848494177938,"perigee_km":461.87158791898,"apogee_km":463.60643407537,"semimajor_km":6840.8760109972,"source":"CELESTRAK","updated_at":"2026-09-20T09:00:40.054733Z"}}}